Погода в Солнечной

Россия / Смоленская область     55°26′42″N   32°49′30″E
темп.,
°C
ветер,
м/с
пор.,
м/с
влажн.,
%
обл.,
%
осадки,
мм/ч
давл.,
гПа
погр.,
м
24 сентября, пт
пт2400:00+5ю4896100 0.0 1006538
03:00+4ююв51195100 0.0 1003667
06:00+4ююв61396100 0.0 1000798
09:00+5ююв71395100 1.3 9971022
12:00+6юв61394100 2.1 9961105
15:00+6юв51295100 2.8 996876
18:00+7юв41096100 0.3 997744
21:00+7юв4997100 0.3 999523
25 сентября, сб
сб2500:00+7юв269898 0.0 1001325
03:00+6ю259899 0.0 1003250
06:00+7ю3697100 0.0 1004368
09:00+7ю3995100 0.0 1005472
12:00+8ююз379599 0.0 1006383
15:00+9ююз3994100 0.6 1005606
18:00+8ююз3896100 1.3 1005542
21:00+8юз3898100 3.3 1005380
26 сентября, вс
вс2600:00+10зсз31099100 0.1 1006519
03:00+9сз6129272 0.7 1008887
06:00+7сз51292100 0.0 1011730
09:00+7сз51195100 0.0 1013738
12:00+8сз5118998 0.1 1015957
15:00+11ссз61175100 0.3 10161213
18:00+10ссз51178100 0.1 10181081
21:00+8ссз4119121 0.3 1020620
27 сентября, пн
пн2700:00+6сз399898 0.0 1021309
03:00+8ссз378768 0.0 1022467
06:00+5ссз389882 0.0 1024331
09:00+8с368993 0.0 1025379
12:00+11с357583 0.0 1026666
15:00+10с3580100 0.1 1026555
18:00+9ссз258631 0.0 1027130
21:00+8ссв288576 0.0 1028249
28 сентября, вт
вт2800:00+6св23965 0.0 102951
03:00+5св23977 0.0 103052
06:00+4св239818 0.0 103162
09:00+7ссв2591100 0.0 1031228
12:00+9всв2482100 0.0 1032658
15:00+11всв2373100 0.1 1032797
18:00+9св238383 0.1 103261
21:00+9всв2477100 0.1 1033104